Year,Month,Day,Hour,Minute,Value (Times are PST for temperature in C)
2013,07,22,00,00,17.50
2013,07,22,00,01,17.50
2013,07,22,00,02,17.50
2013,07,22,00,03,17.50
2013,07,22,00,04,17.50
2013,07,22,00,05,17.40
2013,07,22,00,06,17.40
2013,07,22,00,07,17.40
2013,07,22,00,08,17.40
2013,07,22,00,09,17.40
2013,07,22,00,10,17.40
2013,07,22,00,11,17.40
2013,07,22,00,12,17.40
2013,07,22,00,13,17.30
2013,07,22,00,14,17.30
2013,07,22,00,15,17.30
2013,07,22,00,16,17.30
2013,07,22,00,17,17.30
2013,07,22,00,18,17.30
2013,07,22,00,19,17.30
2013,07,22,00,20,17.30
2013,07,22,00,21,17.30
2013,07,22,00,22,17.20
2013,07,22,00,23,17.20
2013,07,22,00,24,17.20
2013,07,22,00,25,17.20
2013,07,22,00,26,17.20
2013,07,22,00,27,17.20
2013,07,22,00,28,17.20
2013,07,22,00,29,17.10
2013,07,22,00,30,17.10
2013,07,22,00,31,17.10
2013,07,22,00,32,17.10
2013,07,22,00,33,17.10
2013,07,22,00,34,17.10
2013,07,22,00,35,17.00
2013,07,22,00,36,17.00
2013,07,22,00,37,17.00
2013,07,22,00,38,17.00
2013,07,22,00,39,16.90
2013,07,22,00,40,16.90
2013,07,22,00,41,16.90
2013,07,22,00,42,16.90
2013,07,22,00,43,16.90
2013,07,22,00,44,16.90
2013,07,22,00,45,16.90
2013,07,22,00,46,16.90
2013,07,22,00,47,16.90
2013,07,22,00,48,16.90
2013,07,22,00,49,16.90
2013,07,22,00,50,16.90
2013,07,22,00,51,17.00
2013,07,22,00,52,17.00
2013,07,22,00,53,17.00
2013,07,22,00,54,17.00
2013,07,22,00,55,17.00
2013,07,22,00,56,17.00
2013,07,22,00,57,16.90
2013,07,22,00,58,16.90
2013,07,22,00,59,16.90
2013,07,22,01,00,16.90
2013,07,22,01,01,16.90
2013,07,22,01,02,16.90
2013,07,22,01,03,16.90
2013,07,22,01,04,16.90
2013,07,22,01,05,16.80
2013,07,22,01,06,16.80
2013,07,22,01,07,16.80
2013,07,22,01,08,16.80
2013,07,22,01,09,16.70
2013,07,22,01,10,16.70
2013,07,22,01,11,16.70
2013,07,22,01,12,16.70
2013,07,22,01,13,16.70
2013,07,22,01,14,16.70
2013,07,22,01,15,16.70
2013,07,22,01,16,16.70
2013,07,22,01,17,16.70
2013,07,22,01,18,16.70
2013,07,22,01,19,16.70
2013,07,22,01,20,16.70
2013,07,22,01,21,16.70
2013,07,22,01,22,16.70
2013,07,22,01,23,16.70
2013,07,22,01,24,16.70
2013,07,22,01,25,16.70
2013,07,22,01,26,16.70
2013,07,22,01,27,16.70
2013,07,22,01,28,16.70
2013,07,22,01,29,16.70
2013,07,22,01,30,16.70
2013,07,22,01,31,16.70
2013,07,22,01,32,16.70
2013,07,22,01,33,16.60
2013,07,22,01,34,16.60
2013,07,22,01,35,16.60
2013,07,22,01,36,16.60
2013,07,22,01,37,16.50
2013,07,22,01,38,16.50
2013,07,22,01,39,16.50
2013,07,22,01,40,16.50
2013,07,22,01,41,16.50
2013,07,22,01,42,16.50
2013,07,22,01,43,16.50
2013,07,22,01,44,16.50
2013,07,22,01,45,16.50
2013,07,22,01,46,16.50
2013,07,22,01,47,16.50
2013,07,22,01,48,16.50
2013,07,22,01,49,16.50
2013,07,22,01,50,16.40
2013,07,22,01,51,16.40
2013,07,22,01,52,16.40
2013,07,22,01,53,16.40
2013,07,22,01,54,16.40
2013,07,22,01,55,16.40
2013,07,22,01,56,16.40
2013,07,22,01,57,16.40
2013,07,22,01,58,16.40
2013,07,22,01,59,16.40
2013,07,22,02,00,16.40
2013,07,22,02,01,16.40
2013,07,22,02,02,16.30
2013,07,22,02,03,16.30
2013,07,22,02,04,16.30
2013,07,22,02,05,16.30
2013,07,22,02,06,16.30
2013,07,22,02,07,16.30
2013,07,22,02,08,16.30
2013,07,22,02,09,16.30
2013,07,22,02,10,16.30
2013,07,22,02,11,16.30
2013,07,22,02,12,16.20
2013,07,22,02,13,16.20
2013,07,22,02,14,16.20
2013,07,22,02,15,16.20
2013,07,22,02,16,16.20
2013,07,22,02,17,16.20
2013,07,22,02,18,16.10
2013,07,22,02,19,16.10
2013,07,22,02,20,16.10
2013,07,22,02,21,16.10
2013,07,22,02,22,16.10
2013,07,22,02,23,16.10
2013,07,22,02,24,16.10
2013,07,22,02,25,16.10
2013,07,22,02,26,16.20
2013,07,22,02,27,16.20
2013,07,22,02,28,16.20
2013,07,22,02,29,16.20
2013,07,22,02,30,16.20
2013,07,22,02,31,16.20
2013,07,22,02,32,16.20
2013,07,22,02,33,16.20
2013,07,22,02,34,16.20
2013,07,22,02,35,16.10
2013,07,22,02,36,16.10
2013,07,22,02,37,16.10
2013,07,22,02,38,16.10
2013,07,22,02,39,16.10
2013,07,22,02,40,16.10
2013,07,22,02,41,16.10
2013,07,22,02,42,16.10
2013,07,22,02,43,16.10
2013,07,22,02,44,16.10
2013,07,22,02,45,16.10
2013,07,22,02,46,16.10
2013,07,22,02,47,16.10
2013,07,22,02,48,16.10
2013,07,22,02,49,16.00
2013,07,22,02,50,16.10
2013,07,22,02,51,16.10
2013,07,22,02,52,16.10
2013,07,22,02,53,16.00
2013,07,22,02,54,16.00
2013,07,22,02,55,16.00
2013,07,22,02,56,16.00
2013,07,22,02,57,16.00
2013,07,22,02,58,16.00
2013,07,22,02,59,16.10
2013,07,22,03,00,16.10
2013,07,22,03,01,16.10
2013,07,22,03,02,16.10
2013,07,22,03,03,16.10
2013,07,22,03,04,16.10
2013,07,22,03,05,16.10
2013,07,22,03,06,16.00
2013,07,22,03,07,16.00
2013,07,22,03,08,16.00
2013,07,22,03,09,15.90
2013,07,22,03,10,15.90
2013,07,22,03,11,15.90
2013,07,22,03,12,15.80
2013,07,22,03,13,15.80
2013,07,22,03,14,15.80
2013,07,22,03,15,15.80
2013,07,22,03,16,15.80
2013,07,22,03,17,15.70
2013,07,22,03,18,15.70
2013,07,22,03,19,15.80
2013,07,22,03,20,15.80
2013,07,22,03,21,15.80
2013,07,22,03,22,15.90
2013,07,22,03,23,15.90
2013,07,22,03,24,16.00
2013,07,22,03,25,16.00
2013,07,22,03,26,16.00
2013,07,22,03,27,16.10
2013,07,22,03,28,16.10
2013,07,22,03,29,16.10
2013,07,22,03,30,16.00
2013,07,22,03,31,16.00
2013,07,22,03,32,16.00
2013,07,22,03,33,15.90
2013,07,22,03,34,15.90
2013,07,22,03,35,15.90
2013,07,22,03,36,15.90
2013,07,22,03,37,15.90
2013,07,22,03,38,15.90
2013,07,22,03,39,15.80
2013,07,22,03,40,15.80
2013,07,22,03,41,15.80
2013,07,22,03,42,15.80
2013,07,22,03,43,15.80
2013,07,22,03,44,15.80
2013,07,22,03,45,15.70
2013,07,22,03,46,15.70
2013,07,22,03,47,15.70
2013,07,22,03,48,15.70
2013,07,22,03,49,15.70
2013,07,22,03,50,15.60
2013,07,22,03,51,15.60
2013,07,22,03,52,15.60
2013,07,22,03,53,15.60
2013,07,22,03,54,15.60
2013,07,22,03,55,15.50
2013,07,22,03,56,15.60
2013,07,22,03,57,15.60
2013,07,22,03,58,15.60
2013,07,22,03,59,15.60
2013,07,22,04,00,15.60
2013,07,22,04,01,15.60
2013,07,22,04,02,15.60
2013,07,22,04,03,15.50
2013,07,22,04,04,15.50
2013,07,22,04,05,15.60
2013,07,22,04,06,15.60
2013,07,22,04,07,15.60
2013,07,22,04,08,15.60
2013,07,22,04,09,15.70
2013,07,22,04,10,15.70
2013,07,22,04,11,15.70
2013,07,22,04,12,15.70
2013,07,22,04,13,15.70
2013,07,22,04,14,15.70
2013,07,22,04,15,15.70
2013,07,22,04,16,15.70
2013,07,22,04,17,15.70
2013,07,22,04,18,15.70
2013,07,22,04,19,15.70
2013,07,22,04,20,15.70
2013,07,22,04,21,15.70
2013,07,22,04,22,15.70
2013,07,22,04,23,15.70
2013,07,22,04,24,15.70
2013,07,22,04,25,15.70
2013,07,22,04,26,15.60
2013,07,22,04,27,15.60
2013,07,22,04,28,15.60
2013,07,22,04,29,15.60
2013,07,22,04,30,15.60
2013,07,22,04,31,15.60
2013,07,22,04,32,15.60
2013,07,22,04,33,15.50
2013,07,22,04,34,15.50
2013,07,22,04,35,15.50
2013,07,22,04,36,15.50
2013,07,22,04,37,15.40
2013,07,22,04,38,15.40
2013,07,22,04,39,15.40
2013,07,22,04,40,15.30
2013,07,22,04,41,15.30
2013,07,22,04,42,15.30
2013,07,22,04,43,15.30
2013,07,22,04,44,15.20
2013,07,22,04,45,15.20
2013,07,22,04,46,15.20
2013,07,22,04,47,15.10
2013,07,22,04,48,15.10
2013,07,22,04,49,15.10
2013,07,22,04,50,15.10
2013,07,22,04,51,15.10
2013,07,22,04,52,15.10
2013,07,22,04,53,15.10
2013,07,22,04,54,15.10
2013,07,22,04,55,15.10
2013,07,22,04,56,15.10
2013,07,22,04,57,15.10
2013,07,22,04,58,15.00
2013,07,22,04,59,15.00
2013,07,22,05,00,15.00
2013,07,22,05,01,15.00
2013,07,22,05,02,15.00
2013,07,22,05,03,15.00
2013,07,22,05,04,15.00
2013,07,22,05,05,14.90
2013,07,22,05,06,14.90
2013,07,22,05,07,14.90
2013,07,22,05,08,14.90
2013,07,22,05,09,14.90
2013,07,22,05,10,14.90
2013,07,22,05,11,14.90
2013,07,22,05,12,15.00
2013,07,22,05,13,15.00
2013,07,22,05,14,15.00
2013,07,22,05,15,15.10
2013,07,22,05,16,15.00
2013,07,22,05,17,15.00
2013,07,22,05,18,15.00
2013,07,22,05,19,15.10
2013,07,22,05,20,15.10
2013,07,22,05,21,15.10
2013,07,22,05,22,15.10
2013,07,22,05,23,15.10
2013,07,22,05,24,15.10
2013,07,22,05,25,15.10
2013,07,22,05,26,15.10
2013,07,22,05,27,15.10
2013,07,22,05,28,15.10
2013,07,22,05,29,15.10
2013,07,22,05,30,15.20
2013,07,22,05,31,15.20
2013,07,22,05,32,15.20
2013,07,22,05,33,15.20
2013,07,22,05,34,15.20
2013,07,22,05,35,15.20
2013,07,22,05,36,15.20
2013,07,22,05,37,15.20
2013,07,22,05,38,15.10
2013,07,22,05,39,15.10
2013,07,22,05,40,15.10
2013,07,22,05,41,15.10
2013,07,22,05,42,15.00
2013,07,22,05,43,15.00
2013,07,22,05,44,15.00
2013,07,22,05,45,14.90
2013,07,22,05,46,15.00
2013,07,22,05,47,14.90
2013,07,22,05,48,14.90
2013,07,22,05,49,14.90
2013,07,22,05,50,14.90
2013,07,22,05,51,14.80
2013,07,22,05,52,14.80
2013,07,22,05,53,14.80
2013,07,22,05,54,14.80
2013,07,22,05,55,14.80
2013,07,22,05,56,14.80
2013,07,22,05,57,14.80
2013,07,22,05,58,14.80
2013,07,22,05,59,14.80
2013,07,22,06,00,14.80
2013,07,22,06,01,14.90
2013,07,22,06,02,14.90
2013,07,22,06,03,14.90
2013,07,22,06,04,14.90
2013,07,22,06,05,14.90
2013,07,22,06,06,14.90
2013,07,22,06,07,14.90
2013,07,22,06,08,14.80
2013,07,22,06,09,14.80
2013,07,22,06,10,14.80
2013,07,22,06,11,14.80
2013,07,22,06,12,14.80
2013,07,22,06,13,14.80
2013,07,22,06,14,14.80
2013,07,22,06,15,14.80
2013,07,22,06,16,14.70
2013,07,22,06,17,14.70
2013,07,22,06,18,14.70
2013,07,22,06,19,14.60
2013,07,22,06,20,14.60
2013,07,22,06,21,14.60
2013,07,22,06,22,14.60
2013,07,22,06,23,14.60
2013,07,22,06,24,14.70
2013,07,22,06,25,14.70
2013,07,22,06,26,14.70
2013,07,22,06,27,14.60
2013,07,22,06,28,14.70
2013,07,22,06,29,14.70
2013,07,22,06,30,14.70
2013,07,22,06,31,14.70
2013,07,22,06,32,14.80
2013,07,22,06,33,14.80
2013,07,22,06,34,14.80
2013,07,22,06,35,14.90
2013,07,22,06,36,14.90
2013,07,22,06,37,14.90
2013,07,22,06,38,14.90
2013,07,22,06,39,14.90
2013,07,22,06,40,14.90
2013,07,22,06,41,14.90
2013,07,22,06,42,14.90
2013,07,22,06,43,14.90
2013,07,22,06,44,14.90
2013,07,22,06,45,14.90
2013,07,22,06,46,14.90
2013,07,22,06,47,14.90
2013,07,22,06,48,14.90
2013,07,22,06,49,14.80
2013,07,22,06,50,14.90
2013,07,22,06,51,14.90
2013,07,22,06,52,14.90
2013,07,22,06,53,14.90
2013,07,22,06,54,14.90
2013,07,22,06,55,14.90
2013,07,22,06,56,14.90
2013,07,22,06,57,14.90
2013,07,22,06,58,14.90
2013,07,22,06,59,14.90
2013,07,22,07,00,14.90
2013,07,22,07,01,14.80
2013,07,22,07,02,14.80
2013,07,22,07,03,14.80
2013,07,22,07,04,14.80
2013,07,22,07,05,14.80
2013,07,22,07,06,14.80
2013,07,22,07,07,14.80
2013,07,22,07,08,14.80
2013,07,22,07,09,14.80
2013,07,22,07,10,14.80
2013,07,22,07,11,14.80
2013,07,22,07,12,14.80
2013,07,22,07,13,14.70
2013,07,22,07,14,14.70
2013,07,22,07,15,14.60
2013,07,22,07,16,14.60
2013,07,22,07,17,14.60
2013,07,22,07,18,14.60
2013,07,22,07,19,14.60
2013,07,22,07,20,14.60
2013,07,22,07,21,14.60
2013,07,22,07,22,14.60
2013,07,22,07,23,14.60
2013,07,22,07,24,14.60
2013,07,22,07,25,14.50
2013,07,22,07,26,14.50
2013,07,22,07,27,14.40
2013,07,22,07,28,14.40
2013,07,22,07,29,14.40
2013,07,22,07,30,14.30
2013,07,22,07,31,14.20
2013,07,22,07,32,14.20
2013,07,22,07,33,14.10
2013,07,22,07,34,14.10
2013,07,22,07,35,14.00
2013,07,22,07,36,14.00
2013,07,22,07,37,13.90
2013,07,22,07,38,13.90
2013,07,22,07,39,13.80
2013,07,22,07,40,13.80
2013,07,22,07,41,13.70
2013,07,22,07,42,13.70
2013,07,22,07,43,13.60
2013,07,22,07,44,13.60
2013,07,22,07,45,13.50
2013,07,22,07,46,13.40
2013,07,22,07,47,13.40
2013,07,22,07,48,13.30
2013,07,22,07,49,13.30
2013,07,22,07,50,13.30
2013,07,22,07,51,13.30
2013,07,22,07,52,13.20
2013,07,22,07,53,13.20
2013,07,22,07,54,13.20
2013,07,22,07,55,13.10
2013,07,22,07,56,13.10
2013,07,22,07,57,13.00
2013,07,22,07,58,13.00
2013,07,22,07,59,13.00
2013,07,22,08,00,12.90
2013,07,22,08,01,12.90
2013,07,22,08,02,12.90
2013,07,22,08,03,12.80
2013,07,22,08,04,12.80
2013,07,22,08,05,12.80
2013,07,22,08,06,12.80
2013,07,22,08,07,12.80
2013,07,22,08,08,12.80
2013,07,22,08,09,12.80
2013,07,22,08,10,12.80
2013,07,22,08,11,12.80
2013,07,22,08,12,12.80
2013,07,22,08,13,12.80
2013,07,22,08,14,12.80
2013,07,22,08,15,12.70
2013,07,22,08,16,12.70
2013,07,22,08,17,12.70
2013,07,22,08,18,12.70
2013,07,22,08,19,12.70
2013,07,22,08,20,12.70
2013,07,22,08,21,12.70
2013,07,22,08,22,12.70
2013,07,22,08,23,12.70
2013,07,22,08,24,12.60
2013,07,22,08,25,12.60
2013,07,22,08,26,12.60
2013,07,22,08,27,12.60
2013,07,22,08,28,12.60
2013,07,22,08,29,12.60
2013,07,22,08,30,12.60
2013,07,22,08,31,12.60
2013,07,22,08,32,12.60
2013,07,22,08,33,12.60
2013,07,22,08,34,12.60
2013,07,22,08,35,12.60
2013,07,22,08,36,12.60
2013,07,22,08,37,12.60
2013,07,22,08,38,12.60
2013,07,22,08,39,12.60
2013,07,22,08,40,12.60
2013,07,22,08,41,12.60
2013,07,22,08,42,12.60
2013,07,22,08,43,12.60
2013,07,22,08,44,12.60
2013,07,22,08,45,12.60
2013,07,22,08,46,12.70
2013,07,22,08,47,12.70
2013,07,22,08,48,12.80
2013,07,22,08,49,12.80
2013,07,22,08,50,12.90
2013,07,22,08,51,13.00
2013,07,22,08,52,13.00
2013,07,22,08,53,13.10
2013,07,22,08,54,13.10
2013,07,22,08,55,13.20
2013,07,22,08,56,13.30
2013,07,22,08,57,13.40
2013,07,22,08,58,13.50
2013,07,22,08,59,13.60
2013,07,22,09,00,13.70
2013,07,22,09,01,13.80
2013,07,22,09,02,14.00
2013,07,22,09,03,14.10
2013,07,22,09,04,14.20
2013,07,22,09,05,14.30
2013,07,22,09,06,14.40
2013,07,22,09,07,14.50
2013,07,22,09,08,14.50
2013,07,22,09,09,14.60
2013,07,22,09,10,14.70
2013,07,22,09,11,14.70
2013,07,22,09,12,14.70
2013,07,22,09,13,14.70
2013,07,22,09,14,14.80
2013,07,22,09,15,14.80
2013,07,22,09,16,14.80
2013,07,22,09,17,14.80
2013,07,22,09,18,14.80
2013,07,22,09,19,14.80
2013,07,22,09,20,14.80
2013,07,22,09,21,14.80
2013,07,22,09,22,14.90
2013,07,22,09,23,14.90
2013,07,22,09,24,14.90
2013,07,22,09,25,14.90
2013,07,22,09,26,15.00
2013,07,22,09,27,15.00
2013,07,22,09,28,15.10
2013,07,22,09,29,15.10
2013,07,22,09,30,15.20
2013,07,22,09,31,15.20
2013,07,22,09,32,15.20
2013,07,22,09,33,15.20
2013,07,22,09,34,15.20
2013,07,22,09,35,15.20
2013,07,22,09,36,15.30
2013,07,22,09,37,15.30
2013,07,22,09,38,15.30
2013,07,22,09,39,15.30
2013,07,22,09,40,15.30
2013,07,22,09,41,15.30
2013,07,22,09,42,15.30
2013,07,22,09,43,15.30
2013,07,22,09,44,15.30
2013,07,22,09,45,15.40
2013,07,22,09,46,15.40
2013,07,22,09,47,15.40
2013,07,22,09,48,15.40
2013,07,22,09,49,15.50
2013,07,22,09,50,15.50
2013,07,22,09,51,15.60
2013,07,22,09,52,15.60
2013,07,22,09,53,15.70
2013,07,22,09,54,15.70
2013,07,22,09,55,15.80
2013,07,22,09,56,15.90
2013,07,22,09,57,16.00
2013,07,22,09,58,16.10
2013,07,22,09,59,16.20
2013,07,22,10,00,16.30
2013,07,22,10,01,16.40
2013,07,22,10,02,16.50
2013,07,22,10,03,16.60
2013,07,22,10,04,16.70
2013,07,22,10,05,16.80
2013,07,22,10,06,16.90
2013,07,22,10,07,17.00
2013,07,22,10,08,17.10
2013,07,22,10,09,17.20
2013,07,22,10,10,17.20
2013,07,22,10,11,17.30
2013,07,22,10,12,17.40
2013,07,22,10,13,17.50
2013,07,22,10,14,17.50
2013,07,22,10,15,17.60
2013,07,22,10,16,17.70
2013,07,22,10,17,17.80
2013,07,22,10,18,17.90
2013,07,22,10,19,17.90
2013,07,22,10,20,18.00
2013,07,22,10,21,18.10
2013,07,22,10,22,18.10
2013,07,22,10,23,18.20
2013,07,22,10,24,18.20
2013,07,22,10,25,18.30
2013,07,22,10,26,18.30
2013,07,22,10,27,18.40
2013,07,22,10,28,18.50
2013,07,22,10,29,18.50
2013,07,22,10,30,18.60
2013,07,22,10,31,18.70
2013,07,22,10,32,18.80
2013,07,22,10,33,18.80
2013,07,22,10,34,18.90
2013,07,22,10,35,18.90
2013,07,22,10,36,19.00
2013,07,22,10,37,19.00
2013,07,22,10,38,19.10
2013,07,22,10,39,19.10
2013,07,22,10,40,19.10
2013,07,22,10,41,19.20
2013,07,22,10,42,19.20
2013,07,22,10,43,19.30
2013,07,22,10,44,19.30
2013,07,22,10,45,19.40
2013,07,22,10,46,19.50
2013,07,22,10,47,19.60
2013,07,22,10,48,19.70
2013,07,22,10,49,19.80
2013,07,22,10,50,19.80
2013,07,22,10,51,19.80
2013,07,22,10,52,19.80
2013,07,22,10,53,19.80
2013,07,22,10,54,19.80
2013,07,22,10,55,19.80
2013,07,22,10,56,19.80
2013,07,22,10,57,19.80
2013,07,22,10,58,19.80
2013,07,22,10,59,19.90
2013,07,22,11,00,19.90
2013,07,22,11,01,19.90
2013,07,22,11,02,20.00
2013,07,22,11,03,20.00
2013,07,22,11,04,20.00
2013,07,22,11,05,20.00
2013,07,22,11,06,19.90
2013,07,22,11,07,19.90
2013,07,22,11,08,19.80
2013,07,22,11,09,19.80
2013,07,22,11,10,19.80
2013,07,22,11,11,19.80
2013,07,22,11,12,19.80
2013,07,22,11,13,19.80
2013,07,22,11,14,19.80
2013,07,22,11,15,19.80
2013,07,22,11,16,19.80
2013,07,22,11,17,19.80
2013,07,22,11,18,19.80
2013,07,22,11,19,19.80
2013,07,22,11,20,19.80
2013,07,22,11,21,19.80
2013,07,22,11,22,19.90
2013,07,22,11,23,20.00
2013,07,22,11,24,20.10
2013,07,22,11,25,20.20
2013,07,22,11,26,20.20
2013,07,22,11,27,20.20
2013,07,22,11,28,20.20
2013,07,22,11,29,20.20
2013,07,22,11,30,20.10
2013,07,22,11,31,20.10
2013,07,22,11,32,20.10
2013,07,22,11,33,20.00
2013,07,22,11,34,19.90
2013,07,22,11,35,19.80
2013,07,22,11,36,19.80
2013,07,22,11,37,19.70
2013,07,22,11,38,19.70
2013,07,22,11,39,19.70
2013,07,22,11,40,19.70
2013,07,22,11,41,19.70
2013,07,22,11,42,19.70
2013,07,22,11,43,19.60
2013,07,22,11,44,19.50
2013,07,22,11,45,19.50
2013,07,22,11,46,19.50
2013,07,22,11,47,19.50
2013,07,22,11,48,19.50
2013,07,22,11,49,19.50
2013,07,22,11,50,19.40
2013,07,22,11,51,19.40
2013,07,22,11,52,19.40
2013,07,22,11,53,19.40
2013,07,22,11,54,19.30
2013,07,22,11,55,19.30
2013,07,22,11,56,19.20
2013,07,22,11,57,19.20
2013,07,22,11,58,19.20
2013,07,22,11,59,19.10
2013,07,22,12,00,19.20
2013,07,22,12,01,19.20
2013,07,22,12,02,19.20
2013,07,22,12,03,19.20
2013,07,22,12,04,19.20
2013,07,22,12,05,19.20
2013,07,22,12,06,19.10
2013,07,22,12,07,19.10
2013,07,22,12,08,19.10
2013,07,22,12,09,19.10
2013,07,22,12,10,19.10
2013,07,22,12,11,19.20
2013,07,22,12,12,19.20
2013,07,22,12,13,19.30
2013,07,22,12,14,19.30
2013,07,22,12,15,19.30
2013,07,22,12,16,19.30
2013,07,22,12,17,19.30
2013,07,22,12,18,19.30
2013,07,22,12,19,19.30
2013,07,22,12,20,19.30
2013,07,22,12,21,19.30
2013,07,22,12,22,19.30
2013,07,22,12,23,19.20
2013,07,22,12,24,19.30
2013,07,22,12,25,19.30
2013,07,22,12,26,19.30
2013,07,22,12,27,19.30
2013,07,22,12,28,19.30
2013,07,22,12,29,19.30
2013,07,22,12,30,19.30
2013,07,22,12,31,19.30
2013,07,22,12,32,19.40
2013,07,22,12,33,19.50
2013,07,22,12,34,19.60
2013,07,22,12,35,19.70
2013,07,22,12,36,19.80
2013,07,22,12,37,19.90
2013,07,22,12,38,19.90
2013,07,22,12,39,20.00
2013,07,22,12,40,20.00
2013,07,22,12,41,20.00
2013,07,22,12,42,20.10
2013,07,22,12,43,20.10
2013,07,22,12,44,20.10
2013,07,22,12,45,20.00
2013,07,22,12,46,20.00
2013,07,22,12,47,20.00
2013,07,22,12,48,20.10
2013,07,22,12,49,20.10
2013,07,22,12,50,20.00
2013,07,22,12,51,20.10
2013,07,22,12,52,20.00
2013,07,22,12,53,19.90
2013,07,22,12,54,19.90
2013,07,22,12,55,19.80
2013,07,22,12,56,19.80
2013,07,22,12,57,19.90
2013,07,22,12,58,19.90
2013,07,22,12,59,20.00
2013,07,22,13,00,20.00
2013,07,22,13,01,20.10
2013,07,22,13,02,20.20
2013,07,22,13,03,20.30
2013,07,22,13,04,20.40
2013,07,22,13,05,20.40
2013,07,22,13,06,20.40
2013,07,22,13,07,20.50
2013,07,22,13,08,20.60
2013,07,22,13,09,20.60
2013,07,22,13,10,20.70
2013,07,22,13,11,20.80
2013,07,22,13,12,20.80
2013,07,22,13,13,20.80
2013,07,22,13,14,20.80
2013,07,22,13,15,20.80
2013,07,22,13,16,20.70
2013,07,22,13,17,20.70
2013,07,22,13,18,20.70
2013,07,22,13,19,20.70
2013,07,22,13,20,20.70
2013,07,22,13,21,20.70
2013,07,22,13,22,20.80
2013,07,22,13,23,20.80
2013,07,22,13,24,20.80
2013,07,22,13,25,20.80
2013,07,22,13,26,20.80
2013,07,22,13,27,20.80
2013,07,22,13,28,20.70
2013,07,22,13,29,20.70
2013,07,22,13,30,20.70
2013,07,22,13,31,20.70
2013,07,22,13,32,20.80
2013,07,22,13,33,20.80
2013,07,22,13,34,20.80
2013,07,22,13,35,20.80
2013,07,22,13,36,20.80
2013,07,22,13,37,20.70
2013,07,22,13,38,20.70
2013,07,22,13,39,20.70
2013,07,22,13,40,20.70
2013,07,22,13,41,20.70
2013,07,22,13,42,20.70
2013,07,22,13,43,20.70
2013,07,22,13,44,20.70
2013,07,22,13,45,20.60
2013,07,22,13,46,20.50
2013,07,22,13,47,20.40
2013,07,22,13,48,20.50
2013,07,22,13,49,20.50
2013,07,22,13,50,20.60
2013,07,22,13,51,20.60
2013,07,22,13,52,20.60
2013,07,22,13,53,20.60
2013,07,22,13,54,20.50
2013,07,22,13,55,20.50
2013,07,22,13,56,20.50
2013,07,22,13,57,20.40
2013,07,22,13,58,20.40
2013,07,22,13,59,20.40
2013,07,22,14,00,20.40
2013,07,22,14,01,20.40
2013,07,22,14,02,20.40
2013,07,22,14,03,20.40
2013,07,22,14,04,20.40
2013,07,22,14,05,20.40
2013,07,22,14,06,20.40
2013,07,22,14,07,20.40
2013,07,22,14,08,20.40
2013,07,22,14,09,20.40
2013,07,22,14,10,20.40
2013,07,22,14,11,20.40
2013,07,22,14,12,20.40
2013,07,22,14,13,20.40
2013,07,22,14,14,20.40
2013,07,22,14,15,20.40
2013,07,22,14,16,20.40
2013,07,22,14,17,20.40
2013,07,22,14,18,20.40
2013,07,22,14,19,20.40
2013,07,22,14,20,20.50
2013,07,22,14,21,20.50
2013,07,22,14,22,20.50
2013,07,22,14,23,20.40
2013,07,22,14,24,20.40
2013,07,22,14,25,20.50
2013,07,22,14,26,20.50
2013,07,22,14,27,20.50
2013,07,22,14,28,20.60
2013,07,22,14,29,20.60
2013,07,22,14,30,20.60
2013,07,22,14,31,20.70
2013,07,22,14,32,20.80
2013,07,22,14,33,20.80
2013,07,22,14,34,20.80
2013,07,22,14,35,20.80
2013,07,22,14,36,20.80
2013,07,22,14,37,20.90
2013,07,22,14,38,20.90
2013,07,22,14,39,20.90
2013,07,22,14,40,21.00
2013,07,22,14,41,21.00
2013,07,22,14,42,21.00
2013,07,22,14,43,21.00
2013,07,22,14,44,20.90
2013,07,22,14,45,20.90
2013,07,22,14,46,21.00
2013,07,22,14,47,21.00
2013,07,22,14,48,20.90
2013,07,22,14,49,20.80
2013,07,22,14,50,20.80
2013,07,22,14,51,20.80
2013,07,22,14,52,20.80
2013,07,22,14,53,20.80
2013,07,22,14,54,20.90
2013,07,22,14,55,21.00
2013,07,22,14,56,21.10
2013,07,22,14,57,21.10
2013,07,22,14,58,21.20
2013,07,22,14,59,21.20
2013,07,22,15,00,21.20
2013,07,22,15,01,21.10
2013,07,22,15,02,21.00
2013,07,22,15,03,20.90
2013,07,22,15,04,20.90
2013,07,22,15,05,20.80
2013,07,22,15,06,20.80
2013,07,22,15,07,20.80
2013,07,22,15,08,20.80
2013,07,22,15,09,20.80
2013,07,22,15,10,20.80
2013,07,22,15,11,20.80
2013,07,22,15,12,20.90
2013,07,22,15,13,20.90
2013,07,22,15,14,20.90
2013,07,22,15,15,20.80
2013,07,22,15,16,20.80
2013,07,22,15,17,20.80
2013,07,22,15,18,20.80
2013,07,22,15,19,20.80
2013,07,22,15,20,20.70
2013,07,22,15,21,20.70
2013,07,22,15,22,20.70
2013,07,22,15,23,20.80
2013,07,22,15,24,20.80
2013,07,22,15,25,20.80
2013,07,22,15,26,20.80
2013,07,22,15,27,20.80
2013,07,22,15,28,20.80
2013,07,22,15,29,20.80
2013,07,22,15,30,20.80
2013,07,22,15,31,20.80
2013,07,22,15,32,20.80
2013,07,22,15,33,20.80
2013,07,22,15,34,20.80
2013,07,22,15,35,20.80
2013,07,22,15,36,20.80
2013,07,22,15,37,20.80
2013,07,22,15,38,20.80
2013,07,22,15,39,20.80
2013,07,22,15,40,20.80
2013,07,22,15,41,20.80
2013,07,22,15,42,20.80
2013,07,22,15,43,20.90
2013,07,22,15,44,20.90
2013,07,22,15,45,21.00
2013,07,22,15,46,21.00
2013,07,22,15,47,21.10
2013,07,22,15,48,21.20
2013,07,22,15,49,21.20
2013,07,22,15,50,21.10
2013,07,22,15,51,21.10
2013,07,22,15,52,21.10
2013,07,22,15,53,21.10
2013,07,22,15,54,21.00
2013,07,22,15,55,20.90
2013,07,22,15,56,20.80
2013,07,22,15,57,20.80
2013,07,22,15,58,20.80
2013,07,22,15,59,20.70
2013,07,22,16,00,20.70
2013,07,22,16,01,20.70
2013,07,22,16,02,20.60
2013,07,22,16,03,20.60
2013,07,22,16,04,20.60
2013,07,22,16,05,20.60
2013,07,22,16,06,20.60
2013,07,22,16,07,20.60
2013,07,22,16,08,20.50
2013,07,22,16,09,20.50
2013,07,22,16,10,20.50
2013,07,22,16,11,20.50
2013,07,22,16,12,20.50
2013,07,22,16,13,20.60
2013,07,22,16,14,20.60
2013,07,22,16,15,20.60
2013,07,22,16,16,20.60
2013,07,22,16,17,20.60
2013,07,22,16,18,20.70
2013,07,22,16,19,20.70
2013,07,22,16,20,20.60
2013,07,22,16,21,20.60
2013,07,22,16,22,20.60
2013,07,22,16,23,20.50
2013,07,22,16,24,20.40
2013,07,22,16,25,20.40
2013,07,22,16,26,20.50
2013,07,22,16,27,20.50
2013,07,22,16,28,20.60
2013,07,22,16,29,20.60
2013,07,22,16,30,20.60
2013,07,22,16,31,20.60
2013,07,22,16,32,20.60
2013,07,22,16,33,20.70
2013,07,22,16,34,20.70
2013,07,22,16,35,20.60
2013,07,22,16,36,20.60
2013,07,22,16,37,20.60
2013,07,22,16,38,20.60
2013,07,22,16,39,20.60
2013,07,22,16,40,20.60
2013,07,22,16,41,20.60
2013,07,22,16,42,20.60
2013,07,22,16,43,20.50
2013,07,22,16,44,20.40
2013,07,22,16,45,20.40
2013,07,22,16,46,20.30
2013,07,22,16,47,20.30
2013,07,22,16,48,20.30
2013,07,22,16,49,20.30
2013,07,22,16,50,20.20
2013,07,22,16,51,20.30
2013,07,22,16,52,20.30
2013,07,22,16,53,20.30
2013,07,22,16,54,20.30
2013,07,22,16,55,20.40
2013,07,22,16,56,20.40
2013,07,22,16,57,20.40
2013,07,22,16,58,20.40
2013,07,22,16,59,20.40
2013,07,22,17,00,20.40
2013,07,22,17,01,20.50
2013,07,22,17,02,20.40
2013,07,22,17,03,20.40
2013,07,22,17,04,20.40
2013,07,22,17,05,20.40
2013,07,22,17,06,20.50
2013,07,22,17,07,20.50
2013,07,22,17,08,20.50
2013,07,22,17,09,20.50
2013,07,22,17,10,20.50
2013,07,22,17,11,20.50
2013,07,22,17,12,20.40
2013,07,22,17,13,20.40
2013,07,22,17,14,20.40
2013,07,22,17,15,20.30
2013,07,22,17,16,20.30
2013,07,22,17,17,20.30
2013,07,22,17,18,20.30
2013,07,22,17,19,20.30